(300673) = 2004 BL21 = 2007 VZ11

Discovered at Purple Mountain on 2007-11-05 by PMO NEO Survey Program.

Orbit

Orbit type: Main Belt

Note: WebGL enabled browser required.

epoch2023-02-25.0
epoch JD2460000.5
perihelion date2021-07-25.08227
perihelion JD2459420.58227
argument of perihelion (°)314.26069
ascending node (°)103.35929
inclination (°)12.42330
eccentricity0.0384330
perihelion distance (AU)2.6417242
Tisserand w.r.t. Jupiter3.3
ΔV w.r.t. Earth (km/sec)10.9
semimajor axis (AU)2.7473116
mean anomaly (°)125.51867
mean daily motion (°/day)0.21644220
aphelion distance (AU)2.853
period (years)4.55
P-vector [x]0.51921688
P-vector [y]0.83255842
P-vector [z]0.19302929
Q-vector [x]-0.82861493
Q-vector [y]0.43508097
Q-vector [z]0.35228092
absolute magnitude16.3
phase slope0.15
uncertainty0
referenceMPO 745323
observations used383
oppositions15
arc length (days)7529
first opposition used2002
last opposition used2023
residual rms (arc-secs)0.67
perturbers coarse indicatorM-v
perturbers precise indicator003Ek
first observation date used2002-10-08.0
last observation date used2023-05-20.0
computer nameMPCLINUX
JD of orbit computation2456937.559717
perihelion JD uncertainty (days)4.5692E-04
argument of perihelion uncertainty (°)9.5451E-05
ascending node uncertainty (°)2.3079E-05
inclination uncertainty (°)4.8098E-06
eccentricity uncertainty 5.7809E-08
perihelion distance uncertainty (AU)1.7751E-07
Minimum Orbit Intersection Distances (in AU)
for orbit epoch: 2460000.5, reference: E2023-K70
Mercury2.32791
Venus1.92855
Earth1.66833
Mars1.06236
Jupiter2.32649
Saturn6.40169
Uranus15.7147
Neptune27.2414

Observations

388 total observations over interval: 2002 10 08.21578 – 2023 05 20.289072
These data are available for download (format description).

Date (UT) J2000 RA J2000 Dec Magn Location Ref
2002 10 08.21578 00 47 41.38 -16 02 14.0 20.3   644 – Palomar Mountain/NEAT MPS 254339
2002 10 08.23696 00 47 40.30 -16 02 19.0 19.7   644 – Palomar Mountain/NEAT MPS 254339
2002 10 08.25808 00 47 39.21 -16 02 24.5 20.0   644 – Palomar Mountain/NEAT MPS 254339
2003 12 21.288970 08 16 03.559 +21 53 16.50 20.35 V 645 – Apache Point-Sloan Digital Sky Survey MPS 254339
2003 12 21.292442 08 16 03.442 +21 53 17.84 21.00   645 – Apache Point-Sloan Digital Sky Survey MPS 254339
2003 12 22.33847 08 15 27.99 +22 00 21.6 20.1   704 – Lincoln Laboratory ETS, New Mexico MPS 331957
2003 12 22.35147 08 15 27.52 +22 00 27.2 20.4   704 – Lincoln Laboratory ETS, New Mexico MPS 331957
2003 12 22.36456 08 15 27.05 +22 00 33.0 20.4   704 – Lincoln Laboratory ETS, New Mexico MPS 331957
2003 12 22.37775 08 15 26.45 +22 00 37.2 20.4   704 – Lincoln Laboratory ETS, New Mexico MPS 331957
2003 12 27.38697 08 12 13.99 +22 35 43.8   704 – Lincoln Laboratory ETS, New Mexico MPS 407610
2004 01 13.17998 07 57 55.72 +24 40 09.8 19.5 R 699 – Lowell Observatory-LONEOS MPS 97115
2004 01 13.20004 07 57 54.45 +24 40 19.0   699 – Lowell Observatory-LONEOS MPS 97115
2004 01 13.22006 07 57 53.37 +24 40 27.8   699 – Lowell Observatory-LONEOS MPS 97115
2004 01 13.24006 07 57 52.13 +24 40 36.4   699 – Lowell Observatory-LONEOS MPS 97115
2004 01 18.22763 07 53 01.75 +25 16 26.7 19.9 V 691 – Steward Observatory, Kitt Peak-Spacewatch MPS 97115
2004 01 18.26007 07 52 59.81 +25 16 40.4 20.2 V 691 – Steward Observatory, Kitt Peak-Spacewatch MPS 97115
2004 01 18.29272 07 52 57.82 +25 16 54.3 20.1 V 691 – Steward Observatory, Kitt Peak-Spacewatch MPS 97115
2004 01 19.18667 07 52 05.61 +25 23 06.5 19.4 R 699 – Lowell Observatory-LONEOS MPS 97115
2004 01 19.20678 07 52 04.43 +25 23 16.3   699 – Lowell Observatory-LONEOS MPS 97115
2004 01 19.22680 07 52 03.22 +25 23 24.0   699 – Lowell Observatory-LONEOS MPS 97115
2004 01 19.24687 07 52 01.93 +25 23 33.4   699 – Lowell Observatory-LONEOS MPS 97115
2004 01 22.28847 07 49 04.60 +25 44 13.9 20.0   704 – Lincoln Laboratory ETS, New Mexico MPS 97115
2004 01 22.30132 07 49 03.73 +25 44 20.0 20.6   704 – Lincoln Laboratory ETS, New Mexico MPS 97115
2004 01 22.31412 07 49 02.86 +25 44 25.6 20.1   704 – Lincoln Laboratory ETS, New Mexico MPS 97115
2004 01 22.34006 07 49 01.44 +25 44 35.4 20.1   704 – Lincoln Laboratory ETS, New Mexico MPS 97115
2007 11 05.69855 04 02 27.87 +05 20 46.9 20.1 R D29 – Purple Mountain Observatory, XuYi Station MPS 225185
2007 11 05.70988 04 02 27.30 +05 20 46.2 20.4 R D29 – Purple Mountain Observatory, XuYi Station MPS 225185
2007 11 05.72859 04 02 26.34 +05 20 44.3 19.9 R D29 – Purple Mountain Observatory, XuYi Station MPS 225185
2007 11 05.73900 04 02 25.84 +05 20 42.8 19.7 R D29 – Purple Mountain Observatory, XuYi Station MPS 225185
2007 11 06.72080 04 01 36.92 +05 19 22.7 19.8 R D29 – Purple Mountain Observatory, XuYi Station MPS 225185
2007 11 06.73853 04 01 35.95 +05 19 20.7 20.1 R D29 – Purple Mountain Observatory, XuYi Station MPS 225185
2007 11 06.76162 04 01 34.70 +05 19 19.7 19.6 R D29 – Purple Mountain Observatory, XuYi Station MPS 225185
2007 11 06.77670 04 01 33.92 +05 19 17.4 19.7 R D29 – Purple Mountain Observatory, XuYi Station MPS 225185
2007 11 14.24921 03 54 55.69 +05 12 30.5 19.6 V G96 – Mt. Lemmon Survey MPS 254339
2007 11 14.25417 03 54 55.40 +05 12 30.1 19.5 V G96 – Mt. Lemmon Survey MPS 254339
2007 11 14.25912 03 54 55.11 +05 12 30.2 19.4 V G96 – Mt. Lemmon Survey MPS 254339
2007 11 14.26412 03 54 54.82 +05 12 30.2 19.6 V G96 – Mt. Lemmon Survey MPS 254339
2007 11 20.19528 03 49 18.87 +05 12 07.4 19.7 V 703 – Catalina Sky Survey MPS 254339
2007 11 20.20065 03 49 18.44 +05 12 06.3 20.4 V 703 – Catalina Sky Survey MPS 254339
2007 11 20.20605 03 49 18.22 +05 12 06.7 19.9 V 703 – Catalina Sky Survey MPS 254339
2007 11 20.21145 03 49 17.86 +05 12 06.3 20.4 V 703 – Catalina Sky Survey MPS 254339
2009 02 24.33764 11 21 34.56 +21 37 25.1 20.1 V G96 – Mt. Lemmon Survey MPS 277629
2009 02 24.34284 11 21 34.41 +21 37 27.4 19.7 V G96 – Mt. Lemmon Survey MPS 277629
2009 02 24.34803 11 21 34.20 +21 37 30.5 20.1 V G96 – Mt. Lemmon Survey MPS 277629
2009 02 24.35323 11 21 33.91 +21 37 33.2 20.0 V G96 – Mt. Lemmon Survey MPS 277629
2009 03 17.34708 11 04 15.56 +23 56 40.8 21.1 V 703 – Catalina Sky Survey MPS 281340
2009 03 17.35182 11 04 15.38 +23 56 43.6 20.1 V 703 – Catalina Sky Survey MPS 281340
2009 03 17.35662 11 04 15.20 +23 56 43.2 19.5 V 703 – Catalina Sky Survey MPS 281340
2009 03 17.36141 11 04 14.88 +23 56 46.2 20.0 V 703 – Catalina Sky Survey MPS 281340
2009 03 17.39081 11 04 13.51 +23 56 53.2 20.0 V 703 – Catalina Sky Survey MPS 281340
2009 03 17.39465 11 04 13.29 +23 56 53.7 20.4 V 703 – Catalina Sky Survey MPS 281340
2009 03 17.39849 11 04 13.08 +23 56 53.7 19.2 V 703 – Catalina Sky Survey MPS 281340
2009 03 17.40234 11 04 12.93 +23 56 56.2 20.3 V 703 – Catalina Sky Survey MPS 281340
2010 06 07.13914 17 05 59.16 -13 59 18.2 20.3 R J04 – ESA Optical Ground Station, Tenerife MPS 330828
2010 06 07.16377 17 05 57.76 -13 59 21.5 20.4 R J04 – ESA Optical Ground Station, Tenerife MPS 330828
2010 06 07.18829 17 05 56.38 -13 59 24.6 20.4 R J04 – ESA Optical Ground Station, Tenerife MPS 330828
2010 06 16.366778 16 57 25.814 -14 22 24.21 20.71 g F51 – Pan-STARRS 1, Haleakala MPS 337401
2010 06 16.378166 16 57 25.160 -14 22 26.38 20.65 g F51 – Pan-STARRS 1, Haleakala MPS 337401
2011 08 01.60740 00 28 18.352 -13 07 05.59 20.3 z F51 – Pan-STARRS 1, Haleakala MPS 388391
2011 08 01.61670 00 28 18.427 -13 07 09.13 20.5 z F51 – Pan-STARRS 1, Haleakala MPS 388391
2011 09 20.40465 00 07 42.055 -19 31 30.60 20.0 r F51 – Pan-STARRS 1, Haleakala MPS 391187
2011 09 20.41487 00 07 41.534 -19 31 34.54 19.9 r F51 – Pan-STARRS 1, Haleakala MPS 391187
2011 09 20.42710 00 07 40.913 -19 31 39.19 19.8 i F51 – Pan-STARRS 1, Haleakala MPS 391187
2011 09 20.43853 00 07 40.332 -19 31 43.63 19.9 i F51 – Pan-STARRS 1, Haleakala MPS 391187
2011 09 26.32118 00 02 51.72 -20 05 06.1 19.5 V 703 – Catalina Sky Survey MPS 392717
2011 09 26.32863 00 02 51.39 -20 05 07.9 20.1 V 703 – Catalina Sky Survey MPS 392717
2011 09 26.33605 00 02 50.96 -20 05 08.7 19.7 V 703 – Catalina Sky Survey MPS 392717
2011 09 26.34346 00 02 50.64 -20 05 12.4 19.0 V 703 – Catalina Sky Survey MPS 392717
2012 12 06.09558 07 30 22.30 +20 08 22.0 20.3   J43 – Oukaimeden Observatory, Marrakech MPS 445875
2012 12 06.10772 07 30 21.92 +20 08 25.6 20.5   J43 – Oukaimeden Observatory, Marrakech MPS 445875
2012 12 06.11992 07 30 21.58 +20 08 29.1 19.7   J43 – Oukaimeden Observatory, Marrakech MPS 445875
2012 12 06.13207 07 30 21.18 +20 08 33.3 20.9   J43 – Oukaimeden Observatory, Marrakech MPS 445875
2013 01 03.27038 07 08 00.81 +22 56 10.7 19.8 V G96 – Mt. Lemmon Survey MPS 449548
2013 01 03.27619 07 08 00.45 +22 56 13.1 19.8 V G96 – Mt. Lemmon Survey MPS 449548
2013 01 03.28198 07 08 00.09 +22 56 15.0 19.7 V G96 – Mt. Lemmon Survey MPS 449548
2013 01 03.28779 07 07 59.77 +22 56 17.3 19.5 V G96 – Mt. Lemmon Survey MPS 449548
2013 01 03.29369 07 07 59.41 +22 56 19.6 19.7 V G96 – Mt. Lemmon Survey MPS 449548
2014 03 29.28602 14 12 00.71 +06 18 37.5 20.5 r G45 – Space Surveillance Telescope, Atom Site MPS 536186
2014 03 29.30219 14 12 00.01 +06 18 43.2 20.2 r G45 – Space Surveillance Telescope, Atom Site MPS 536186
2014 03 29.32784 14 11 59.01 +06 18 52.7 19.6 r G45 – Space Surveillance Telescope, Atom Site MPS 536186
2014 03 29.33922 14 11 58.59 +06 18 56.0 19.8 r G45 – Space Surveillance Telescope, Atom Site MPS 536186
2014 03 29.36207 14 11 57.61 +06 19 05.3 20.1 r G45 – Space Surveillance Telescope, Atom Site MPS 536186
2014 03 30.28086 14 11 21.81 +06 24 33.9 20.2 r G45 – Space Surveillance Telescope, Atom Site MPS 536186
2014 03 30.29222 14 11 21.38 +06 24 37.5 20.3 r G45 – Space Surveillance Telescope, Atom Site MPS 536186
2014 03 30.32089 14 11 20.20 +06 24 48.0 20.4 r G45 – Space Surveillance Telescope, Atom Site MPS 536186
2014 03 30.33229 14 11 19.70 +06 24 52.3 20.5 r G45 – Space Surveillance Telescope, Atom Site MPS 536186
2014 03 30.34509 14 11 19.20 +06 24 56.9 20.2 r G45 – Space Surveillance Telescope, Atom Site MPS 536186
